[[{"header":{"parameterUnit":"m.s-1","parameterCategory":1,"la1":30.2992,"la2":30.254,"lo1":-89.0895,"lo2":-89.0443,"dy":0.0025,"dx":0.0025,"nx":19,"ny":19,"refTime":"2026-03-27T03:00:00:Z","depth":0,"parameterNumber":2,"parameterNumberName":"U-component_of_WINDS"},"data":[0,0,0,-2.8183,-2.8185,-2.8259,-2.8259,-2.8363,-2.8364,0,0,0,0,0,0,0,0,0,0,0,-2.8166,-2.8167,-2.8183,-2.8185,-2.8259,-2.8259,-2.8363,-2.8364,0,0,0,0,0,0,0,0,0,0,0,-2.8166,-2.8167,-2.8168,-2.8185,-2.8259,-2.8259,-2.8363,-2.8303,0,0,0,0,0,0,0,0,0,0,-2.823,-2.822,-2.8167,-2.8168,-2.8185,-2.8259,-2.8259,-2.83,-2.8307,-2.8333,0,-2.8358,0,-2.8363,-2.8372,-2.8372,0,0,0,-2.8181,-2.8214,-2.8229,-2.8168,-2.8186,-2.8259,-2.8224,-2.8304,-2.8312,-2.8342,-2.836,-2.8363,-2.8365,-2.8372,-2.8373,-2.8538,-2.8539,0,0,-2.8176,-2.8183,-2.8224,-2.8235,-2.8224,-2.8222,-2.8227,-2.8309,-2.8328,-2.836,-2.8366,-2.8366,-2.8373,-2.8374,-2.8537,-2.8539,0,0,0,-2.8167,-2.818,-2.8193,-2.8231,-2.8243,-2.8224,-2.823,-2.8324,-2.8328,-2.8367,-2.8368,-2.8374,-2.8375,-2.8536,-2.8538,-2.8593,0,0,0,-2.8165,-2.8175,-2.8191,-2.8196,-2.8242,-2.8285,-2.8244,-2.8322,-2.8331,-2.8367,-2.8374,-2.8376,-2.8535,-2.8537,-2.8589,-2.8618,0,0,0,-2.816,-2.8174,-2.8187,-2.8196,-2.8228,-2.8283,-2.8291,-2.8324,-2.8332,-2.8372,-2.8377,-2.8535,-2.8537,-2.8585,-2.8612,-2.8664,0,0,0,-2.8156,-2.8234,-2.8188,-2.8275,-2.8228,-2.8316,-2.8291,-2.8356,-2.8397,-2.8374,-2.8535,-2.8538,-2.8584,-2.8609,-2.866,-2.871,-2.873,0,0,-2.8258,-2.8247,-2.8297,-2.8258,-2.8357,-2.8304,-2.8411,-2.8442,-2.844,-2.8506,-2.851,-2.859,-2.8612,-2.8663,-2.8842,-2.8859,0,0,0,-2.8332,-2.8369,-2.8394,-2.8433,-2.8459,-2.8483,-2.8497,-2.8509,-2.8564,-2.8475,-2.8622,-2.8635,-2.8664,-2.8688,-2.8702,-2.8728,-2.8548,-2.8548,-2.8548,-2.8487,-2.848,-2.8564,-2.8566,-2.8604,-2.8618,-2.8648,-2.8666,-2.8647,-2.8682,-2.8702,-2.8812,-2.8839,-2.885,-2.8877,-2.8726,-2.8726,-2.8727,-2.8727,-2.8637,-2.8688,-2.8661,-2.8734,-2.8726,-2.8786,-2.8802,-2.8787,-2.8842,-2.8796,-2.8822,-2.8774,-2.8868,-2.8891,-2.8731,-2.873,-2.873,-2.8729,-2.8729,-2.8739,-2.8762,-2.8774,-2.8831,-2.8874,-2.8873,-2.8927,-2.8917,-2.8909,-2.8934,-2.8955,-2.8954,-2.8953,-2.8944,-2.8945,-2.8945,-2.8945,-2.8946,-2.8946,-2.884,-2.8852,-2.8899,-2.8933,-2.8957,-2.8987,-2.9001,-2.9024,-2.9047,-2.9036,-2.9036,-2.9015,-2.8878,-2.8845,-2.8952,-2.8951,-2.895,-2.8949,-2.8949,-2.8997,-2.896,-2.9033,-2.9057,-2.9096,-2.914,-2.9126,-2.9174,-2.9192,-2.9219,-2.9192,-2.9092,-2.908,-2.9068,-2.9041,-2.9192,-2.9192,-2.9192,-2.9192,-2.9085,-2.9077,-2.9149,-2.9188,-2.9225,-2.922,-2.9303,-2.9314,-2.932,-2.9331,-2.9307,-2.9269,-2.9258,-2.9252,-2.9237,-2.9211,-2.9402,-2.9403,-2.9403,-2.9182,-2.9177,-2.925,-2.9255,-2.9284,-2.9309,-2.9387,-2.9433,-2.9431,-2.9411,-2.9339,-2.933,-2.9269,-2.9249,-2.9229,-2.9205,-2.9158,0,0]},{"header":{"parameterUnit":"m.s-1","parameterCategory":1,"la1":30.2992,"la2":30.254,"lo1":-89.0895,"lo2":-89.0443,"dy":0.0025,"dx":0.0025,"nx":19,"ny":19,"refTime":"2026-03-27T03:00:00:Z","depth":0,"parameterNumber":3,"parameterNumberName":"V-component_of_WINDS"},"data":[0,0,0,-5.0893,-5.0894,-5.0913,-5.0913,-5.0944,-5.0945,0,0,0,0,0,0,0,0,0,0,0,-5.0892,-5.0892,-5.0893,-5.0894,-5.0913,-5.0913,-5.0944,-5.0945,0,0,0,0,0,0,0,0,0,0,0,-5.0892,-5.0892,-5.0893,-5.0894,-5.0913,-5.0913,-5.0944,-5.0927,0,0,0,0,0,0,0,0,0,0,-5.0907,-5.0911,-5.0892,-5.0893,-5.0894,-5.0913,-5.0913,-5.0926,-5.0928,-5.0939,0,-5.095,0,-5.0948,-5.0947,-5.0948,0,0,0,-5.089,-5.0909,-5.091,-5.0893,-5.0894,-5.0913,-5.0903,-5.0927,-5.093,-5.0942,-5.095,-5.0951,-5.0949,-5.0948,-5.0948,-5.1024,-5.1024,0,0,-5.0889,-5.0897,-5.0909,-5.0912,-5.091,-5.0903,-5.0904,-5.0929,-5.0938,-5.095,-5.0952,-5.0949,-5.0948,-5.0948,-5.1023,-5.1024,0,0,0,-5.0888,-5.0897,-5.0897,-5.0911,-5.0914,-5.0903,-5.0905,-5.0937,-5.0937,-5.0952,-5.0949,-5.0948,-5.0949,-5.1023,-5.1024,-5.1059,0,0,0,-5.0888,-5.0897,-5.0897,-5.0903,-5.0914,-5.0926,-5.0913,-5.0935,-5.0937,-5.0949,-5.0948,-5.0949,-5.1022,-5.1023,-5.1057,-5.1074,0,0,0,-5.0889,-5.0897,-5.0901,-5.0903,-5.0912,-5.0925,-5.0926,-5.0935,-5.0936,-5.0948,-5.0949,-5.1022,-5.1023,-5.1055,-5.1071,-5.1098,0,0,0,-5.0893,-5.0931,-5.0902,-5.0943,-5.0912,-5.0947,-5.0926,-5.0951,-5.0965,-5.0948,-5.1022,-5.1023,-5.1054,-5.1069,-5.1096,-5.1122,-5.1134,0,0,-5.0946,-5.0938,-5.0961,-5.0936,-5.0979,-5.0943,-5.0992,-5.0996,-5.0988,-5.1012,-5.1014,-5.1057,-5.107,-5.1097,-5.1196,-5.1206,0,0,0,-5.0981,-5.0998,-5.1008,-5.1023,-5.1028,-5.1034,-5.103,-5.1031,-5.1052,-5.1003,-5.1074,-5.1081,-5.1097,-5.1109,-5.1117,-5.113,-5.1029,-5.1029,-5.1029,-5.1067,-5.1058,-5.1097,-5.109,-5.1104,-5.1101,-5.1112,-5.1114,-5.1098,-5.1115,-5.1122,-5.1183,-5.1198,-5.1204,-5.1218,-5.1135,-5.1135,-5.1135,-5.1135,-5.1144,-5.1168,-5.1148,-5.1179,-5.1169,-5.1195,-5.1193,-5.1182,-5.1204,-5.1177,-5.119,-5.1161,-5.1215,-5.1226,-5.1138,-5.1137,-5.1137,-5.1137,-5.1137,-5.12,-5.121,-5.1213,-5.1234,-5.1252,-5.1243,-5.1267,-5.1255,-5.1245,-5.1258,-5.1265,-5.1264,-5.1263,-5.1262,-5.1262,-5.1262,-5.1263,-5.1263,-5.1263,-5.1257,-5.1259,-5.1281,-5.1291,-5.13,-5.1311,-5.1309,-5.1317,-5.1324,-5.1314,-5.1314,-5.1297,-5.1222,-5.1204,-5.1266,-5.1266,-5.1265,-5.1265,-5.1265,-5.1339,-5.132,-5.1353,-5.1362,-5.1375,-5.1394,-5.138,-5.1398,-5.1404,-5.1416,-5.1397,-5.1343,-5.1333,-5.1327,-5.1312,-5.1398,-5.1398,-5.1398,-5.1398,-5.1387,-5.1382,-5.1414,-5.143,-5.1445,-5.1436,-5.1475,-5.1475,-5.1471,-5.1474,-5.146,-5.1438,-5.1432,-5.1426,-5.1418,-5.1404,-5.1511,-5.1512,-5.1512,-5.1437,-5.1433,-5.1468,-5.1466,-5.1475,-5.1484,-5.152,-5.1539,-5.153,-5.1516,-5.1476,-5.1471,-5.1437,-5.1426,-5.1411,-5.1397,-5.1371,0,0]}]]